Zurück zum Katalog

DELTA 1 DEB

LostLEO
NORAD 42576·DEBRIS·🇺🇸 United States

Gestartet Nov 6, 1973 von Vandenberg Space Force Base

Loading…

Nächste Überflüge (nächste 24 Stunden)

TLE

VeraltetSource: Space-Track

Epoche: May 22, 2026, 14:43 UTC

1 42576U 73086HQ  26142.61339867  .00000008  00000-0  22466-3 0  9997
2 42576 102.2085  19.9232 0301898   3.9827  24.2659 12.76490552582215

Verfolge DELTA 1 DEB in Echtzeit mit AllMySat

Download on the App Store